Torna al catalogo

FENGYUN 1C DEB

AttivoPO
NORAD 31910·DEBRIS·🇨🇳 China

Lanciato May 10, 1999 da Taiyuan Satellite Launch Center

Loading…

Prossimi Passaggi (prossime 24 ore)

TLE

In scadenzaSource: Space-Track

Epoca: Sep 9, 2026, 06:16 UTC

1 31910U 99025CLM 26252.26133748  .00003332  00000-0  63862-3 0  9999
2 31910  97.6575 253.7961 0222403  35.0933 326.4687 14.49725696682863

Traccia FENGYUN 1C DEB in tempo reale con AllMySat

Download on the App Store